Wind_Gust
14 21 27 31 21 18 17 17 14 15 13 11 17 15 17 18 14 13 16 21 20 23 25 21 15 20 20 22 19 17 13 16 19 18 18 18 19 18 17 17 17 17 20 16 17 15 15 18 15 17 18 19 17 16 17 19 19 20 23 22 19 16 16 16 16 14 15 15 14 9 10 10 7 9 8 9 7 9 7 5 6 6 7 8 9 9
19 21 25 14 13 17 18 14 14 16 22 17 12 18 17 20 20 16 16 22 20 22 20 22 17 17 21 19 20 20 20 21 22 19 19 18 17 16 19 17 16 16 15 16 15 14 12 15 14 14 18 19 22 15 16 18 18 17 18 20 19 15 13 14 14 13 12 10 14 13 11 11 9 9 11 10 9 9 8 7 6 6 5 7 11 14
31 32 16 12 15 13 16 20 16 18 21 21 16 12 17 24 21 19 23 20 17 21 17 24 22 18 21 18 16 23 24 26 28 33 31 27 19 17 15 17 17 19 20 18 18 16 17 16 16 17 17 16 18 18 16 16 17 17 17 17 16 14 14 11 12 13 13 7 11 11 12 11 12 9 7 9 9 9 9 8 9 10 11 14 16 16
24 24 17 15 16 18 17 22 20 19 21 18 18 15 14 11 23 20 28 27 13 31 20 26 13 17 16 11 10 5 12 16 11 11 19 22 28 24 22 22 23 21 24 21 19 20 20 20 19 18 19 19 17 15 14 15 17 16 16 15 14 12 11 12 9 11 9 10 10 11 13 9 8 11 8 9 8 7 9 12 11 12 14 15 16 16
18 9 16 17 16 21 20 21 22 22 22 20 17 13 15 17 14 23 23 27 12 19 21 21 19 11 12 20 14 7 10 17 14 13 12 7 9 13 15 13 20 26 23 23 20 19 20 17 18 19 18 20 18 15 15 16 16 14 14 13 12 12 11 10 10 12 12 14 13 13 12 13 14 11 9 10 11 11 13 14 14 16 16 17 17 17
19 17 21 22 21 20 20 22 29 23 17 22 18 16 15 16 17 17 16 15 14 15 21 33 18 14 12 24 21 18 16 14 16 18 15 15 15 18 20 21 19 19 18 23 22 21 19 18 17 17 19 19 18 17 14 14 13 13 13 13 11 10 9 11 10 12 13 14 17 16 16 16 14 14 12 13 15 13 13 15 12 15 16 16 17 17
17 17 25 25 22 21 23 21 22 23 22 17 24 15 21 24 22 11 20 18 12 26 17 29 29 18 10 17 22 16 16 16 15 16 16 18 19 20 22 23 26 25 21 18 19 20 21 20 19 19 17 18 18 16 15 13 13 14 13 12 12 11 10 9 11 10 12 12 11 13 13 14 15 17 11 11 13 15 13 13 14 14 14 16 17 15
23 27 23 24 23 26 26 29 26 29 21 30 13 14 18 22 24 20 21 22 11 15 18 21 26 27 19 19 21 16 13 15 14 15 16 18 19 21 21 24 23 24 21 23 21 20 19 20 20 20 17 15 16 16 15 14 14 15 13 13 12 10 9 8 9 10 10 13 10 11 11 12 13 14 18 15 14 13 14 16 15 14 13 14 15 16
17 25 27 28 26 28 30 23 12 23 33 22 14 16 17 18 21 22 16 9 12 20 25 13 22 23 20 22 16 14 17 14 18 18 20 21 22 23 23 26 24 22 23 23 24 23 19 20 19 16 16 14 14 15 16 15 15 14 13 12 12 11 9 9 8 9 8 8 11 12 13 14 11 15 17 16 15 15 14 15 13 15 15 15 15 15
26 19 29 25 28 28 17 19 18 23 31 17 16 15 20 16 20 17 12 13 16 23 26 20 19 23 11 13 16 13 16 23 24 23 22 24 25 26 26 23 23 21 22 22 23 22 19 19 18 15 15 14 14 13 13 14 15 13 13 14 13 10 9 9 8 9 9 10 10 13 13 17 15 15 15 15 15 13 12 15 13 14 15 14 15 14
20 16 19 33 35 23 18 18 25 15 19 9 19 17 23 20 16 8 12 15 8 16 19 20 21 21 19 20 27 29 33 35 23 18 18 21 21 22 21 25 25 26 25 25 23 21 20 19 18 19 19 16 14 13 14 14 14 13 14 14 13 11 9 9 8 9 10 9 9 13 14 17 18 16 16 17 15 13 12 14 13 14 15 14 13 12
22 21 24 32 20 24 14 22 24 19 14 19 27 25 16 15 6 9 10 6 20 19 14 12 20 20 23 21 19 25 29 30 34 32 30 28 31 29 23 23 22 22 22 23 23 22 22 19 17 18 19 18 16 16 16 14 13 14 14 15 14 12 11 10 9 9 10 12 13 13 14 15 16 17 17 17 16 14 15 14 16 15 15 13 12 11
23 26 14 18 23 24 27 18 24 24 18 22 16 15 19 16 18 22 16 21 18 20 13 13 19 16 21 26 35 34 24 18 28 35 36 34 30 27 24 24 23 21 21 23 23 24 23 22 23 21 20 19 18 18 17 17 15 16 15 14 15 13 11 10 9 10 10 12 13 15 16 14 15 15 16 16 14 12 14 16 17 15 14 12 14 12
13 18 21 18 23 29 23 29 27 27 26 25 26 20 21 23 22 20 11 13 8 12 11 20 18 24 10 10 36 38 31 32 33 27 31 33 34 30 26 24 24 23 23 23 23 23 22 23 22 20 19 18 18 18 19 18 17 16 16 14 15 14 12 12 12 11 12 12 13 14 14 14 15 16 16 15 16 15 16 17 17 14 13 14 12 11
17 26 30 24 30 26 30 27 20 13 19 26 17 18 17 16 23 20 15 23 19 15 16 5 24 22 12 16 28 37 37 28 27 25 30 28 27 26 23 23 24 23 20 23 22 22 22 23 21 20 20 19 18 19 20 18 17 17 17 17 18 16 14 14 12 12 13 12 13 13 14 14 14 16 16 15 14 16 17 16 17 13 13 13 9 10
15 16 16 20 9 28 26 19 17 17 12 24 20 12 14 24 14 12 17 15 13 10 8 9 18 11 16 18 32 26 20 21 20 23 26 25 25 25 24 26 25 23 24 23 22 22 21 22 21 20 19 19 19 20 18 17 19 19 18 16 18 17 14 15 13 12 13 12 13 12 14 14 15 15 15 15 15 15 15 15 15 15 13 10 9 8
21 20 20 23 14 32 23 20 21 21 31 24 17 28 19 13 13 10 6 5 10 8 16 9 6 7 7 22 20 26 26 24 25 29 29 27 25 26 27 24 22 24 25 24 24 23 23 21 19 19 20 21 21 20 18 18 18 19 18 18 18 16 12 14 13 13 12 12 13 11 12 13 13 14 14 17 16 16 16 16 15 15 11 8 8 10
21 15 23 25 18 33 26 19 11 20 15 19 29 15 6 9 10 19 17 9 11 15 19 7 9 5 11 16 18 20 26 27 28 30 31 27 25 25 24 24 25 25 24 22 21 22 23 22 22 20 20 20 20 18 19 19 17 17 16 17 19 17 15 11 12 12 11 13 13 13 14 13 14 15 14 14 16 16 17 15 13 11 11 8 9 11
12 16 24 17 18 22 20 19 11 12 9 15 17 11 28 26 17 9 18 14 16 16 12 11 10 7 15 18 19 19 26 24 25 29 30 28 28 25 21 22 22 24 25 23 23 24 23 23 23 22 21 20 19 18 19 19 18 17 15 14 17 16 13 12 11 11 11 11 12 12 13 14 13 12 13 14 15 15 17 15 12 11 10 12 12 14
10 16 11 9 19 13 13 19 24 18 15 10 12 21 14 14 11 11 18 13 22 9 8 13 9 15 15 31 31 35 25 30 30 31 30 33 31 27 26 25 25 25 24 24 24 24 23 22 23 23 24 23 22 21 19 19 18 18 16 15 15 13 12 12 12 12 12 10 12 12 11 11 13 14 13 12 15 17 16 14 12 12 13 13 14 14
12 11 22 15 11 20 26 26 19 16 19 21 15 17 22 17 11 14 7 11 17 17 20 12 11 13 13 24 35 37 34 34 37 37 33 31 25 26 27 28 25 25 24 23 24 26 25 24 24 23 21 22 20 19 19 20 19 17 16 15 15 16 14 12 11 12 12 12 12 12 12 13 14 14 14 15 15 16 15 14 12 13 11 15 15 15
15 22 22 16 22 27 20 10 11 14 13 14 15 12 12 16 10 15 14 8 10 16 17 19 19 16 17 20 32 38 38 40 40 40 36 31 29 29 30 29 29 28 24 24 23 24 25 23 24 23 23 22 22 21 20 20 19 17 16 15 16 15 12 13 12 12 11 10 13 12 13 12 12 13 15 15 15 14 14 14 14 13 16 16 15 16
17 16 20 17 15 16 10 10 16 14 12 18 14 10 11 16 14 13 12 10 8 11 13 15 13 12 11 12 24 34 34 36 35 36 33 29 30 30 30 28 28 29 26 26 25 25 24 23 22 25 25 24 22 22 21 19 19 18 16 16 14 13 10 11 12 11 13 13 14 13 13 14 14 15 14 14 13 14 15 14 14 16 18 17 16 15
12 24 21 11 8 17 16 10 17 18 8 9 13 9 9 19 15 13 12 12 13 6 7 7 17 16 12 7 20 29 32 34 34 33 31 27 24 26 26 26 25 22 21 23 25 25 26 23 22 24 23 22 22 22 20 19 18 17 16 14 13 13 13 13 13 14 14 14 14 13 14 14 14 15 14 14 13 14 13 15 15 16 17 16 16 17
17 10 20 15 16 17 16 11 15 16 19 12 12 14 7 9 18 12 11 5 8 9 12 17 16 9 11 13 24 18 22 26 24 22 32 29 25 26 26 25 24 25 25 25 25 26 26 24 24 25 22 22 22 21 19 20 19 17 16 12 14 15 13 14 14 15 15 15 15 14 15 13 13 14 14 13 14 14 15 15 16 17 17 17 17 15
9 10 19 22 24 27 33 31 29 20 16 11 6 8 12 8 20 19 16 8 11 7 9 14 9 13 10 17 28 27 22 19 22 23 21 30 30 27 23 24 27 26 26 26 26 27 28 27 24 22 21 22 21 21 20 19 18 15 14 16 14 15 14 13 14 15 15 15 15 14 14 12 13 13 12 13 13 14 15 16 16 17 16 17 17 16
9 9 9 14 20 19 12 7 8 15 12 15 8 4 9 10 8 12 14 9 15 8 4 7 17 10 15 19 25 25 27 26 23 21 25 23 22 24 25 28 28 27 29 28 27 27 25 23 24 23 22 22 21 19 20 19 17 16 18 17 13 13 14 13 14 14 15 14 14 14 12 13 12 13 13 13 14 14 16 17 16 17 17 16 15 16
6 12 6 14 8 14 13 12 12 14 12 9 8 8 7 8 10 8 14 19 12 10 9 7 15 22 13 12 24 26 25 25 26 26 22 25 29 30 28 25 19 23 23 24 25 26 28 26 24 24 24 22 22 21 20 17 18 18 18 18 14 13 13 14 15 15 15 15 14 13 12 11 11 12 13 12 13 14 14 15 16 16 15 15 16 16
5 11 4 6 6 8 8 12 17 18 10 12 11 12 16 11 11 9 8 8 8 15 15 9 13 20 14 13 21 32 34 33 34 34 36 32 27 24 26 27 27 25 25 26 26 26 27 26 26 25 23 24 22 21 20 20 19 17 16 16 13 14 15 14 15 15 15 15 15 12 11 11 11 11 12 13 13 14 15 16 16 16 16 16 16 17
11 6 4 8 6 10 10 15 21 19 18 11 9 6 12 9 10 10 7 7 7 4 19 15 11 13 10 17 20 20 20 27 25 18 18 22 26 26 27 27 27 26 26 28 26 24 25 25 26 26 24 24 24 23 22 23 21 20 19 17 17 17 16 16 15 16 15 15 14 11 11 12 12 13 13 14 15 15 16 17 17 17 18 17 17 16
10 8 9 6 8 10 12 11 25 21 17 14 5 8 8 7 8 7 7 5 11 9 9 16 19 12 5 16 17 14 18 20 22 22 25 24 24 26 27 26 26 26 26 27 28 27 24 26 27 27 26 25 24 24 23 23 22 20 19 17 16 16 15 15 15 15 16 15 13 13 13 14 14 14 14 14 15 16 17 17 17 17 17 17 16 17
12 5 6 9 9 10 7 5 21 13 19 14 10 11 11 7 7 6 12 8 8 10 9 11 17 15 7 6 19 23 24 27 26 24 23 22 23 25 27 27 26 26 26 27 27 27 28 27 29 30 29 28 27 27 25 24 22 21 19 18 17 16 15 15 16 17 16 15 13 14 15 14 14 15 14 15 16 17 16 16 17 17 16 17 16 15
5 6 8 6 11 9 9 15 15 13 14 12 7 8 12 7 4 4 4 6 9 18 17 13 17 22 24 20 23 16 24 25 24 26 25 22 23 25 28 28 27 27 27 28 29 30 30 29 29 28 28 29 30 27 25 27 26 23 22 21 17 16 17 17 17 17 16 14 14 15 14 14 15 15 15 15 15 15 16 17 17 17 17 17 15 14
5 9 6 3 11 5 6 10 10 17 20 13 11 5 6 5 8 9 7 8 8 12 20 18 16 19 23 21 28 24 23 28 30 23 25 31 26 21 19 20 21 22 23 25 29 30 28 27 24 27 29 26 23 24 23 25 27 23 21 21 18 18 18 19 17 17 15 14 15 14 15 14 15 15 14 14 15 15 16 17 16 14 14 16 15 15
6 7 4 4 8 6 7 12 20 13 13 11 8 8 5 7 13 12 6 5 5 9 17 20 22 23 25 24 28 34 29 20 17 24 19 23 29 29 28 24 23 25 28 28 26 24 25 27 27 24 23 21 21 20 22 23 23 23 22 20 20 19 19 18 18 17 16 16 15 15 14 15 15 15 15 16 16 16 16 17 16 15 14 15 15 15
4 7 4 8 5 8 9 9 21 13 9 7 9 10 7 7 7 13 8 8 6 10 20 24 26 24 19 15 16 19 21 19 15 13 19 21 23 27 29 28 29 33 34 33 33 30 29 28 33 31 24 19 20 21 21 21 20 21 19 19 20 19 18 18 17 16 16 16 15 15 15 16 16 16 16 16 16 15 15 15 16 15 12 13 12 12
7 6 6 8 6 10 5 9 10 7 8 11 9 9 10 6 4 10 12 10 5 4 13 24 21 21 16 21 24 22 21 20 16 12 12 19 17 20 30 30 31 33 33 29 29 28 25 25 25 26 26 22 22 22 20 19 21 20 20 22 20 21 20 18 17 16 15 15 15 16 16 16 17 17 16 16 16 15 14 15 14 13 13 15 13 14
5 6 5 11 9 9 9 7 8 7 9 12 11 9 7 7 9 8 11 12 10 13 7 24 27 21 21 20 25 25 24 24 17 17 17 18 19 20 17 18 19 21 22 23 20 22 23 22 22 20 22 24 22 21 21 20 21 24 23 21 19 21 20 20 17 15 16 15 15 16 16 16 17 17 16 15 16 15 13 12 12 14 14 16 14 14
10 13 10 12 5 7 9 10 7 10 15 13 12 10 6 6 11 6 12 10 12 10 9 12 22 24 28 27 25 25 24 23 22 24 22 21 18 22 24 23 23 23 24 27 28 23 21 21 22 22 20 21 21 19 20 23 25 25 23 20 19 22 22 22 23 22 19 15 15 15 16 16 16 16 16 16 15 16 16 14 15 14 14 15 13 13
9 8 11 13 7 5 7 6 5 9 8 5 8 6 6 11 9 14 11 16 11 12 10 11 17 23 27 28 30 28 29 22 21 25 24 26 23 24 28 27 26 25 23 23 24 27 24 22 21 20 23 23 20 21 25 25 25 22 21 20 19 21 24 25 22 20 21 15 14 14 15 15 16 15 16 17 15 14 15 14 14 15 15 14 14 14
7 6 8 6 7 4 8 7 6 8 12 7 6 4 6 7 14 13 19 12 8 8 9 12 17 20 26 28 30 28 22 26 28 23 24 21 21 20 21 23 25 26 25 23 25 21 25 25 26 27 24 22 23 24 24 24 25 23 20 21 21 20 20 19 19 21 22 21 18 15 16 15 16 17 15 15 16 15 14 14 16 15 15 14 13 13
4 4 7 7 3 4 6 6 9 10 12 5 5 8 6 9 4 6 13 8 4 7 9 8 16 15 16 26 26 26 23 8 21 27 28 27 27 23 24 25 24 21 22 24 24 23 23 22 20 20 20 21 26 26 25 25 25 22 21 21 21 19 18 18 19 20 20 21 21 18 16 16 14 16 16 14 15 15 14 13 15 15 14 14 13 13
11 9 5 8 9 5 7 7 5 8 8 4 6 8 11 13 11 11 5 6 4 6 9 12 11 15 22 25 19 9 13 19 26 29 29 27 27 28 28 29 29 29 28 27 26 24 27 23 24 24 23 23 22 22 23 25 24 22 21 22 19 18 19 19 19 20 20 19 20 18 17 15 15 15 14 14 15 16 16 14 15 14 14 14 13 13
7 9 6 7 10 10 6 9 10 10 12 8 7 7 6 7 10 8 7 7 11 11 10 10 10 10 17 25 22 10 20 20 19 20 20 20 23 23 23 24 24 24 23 22 25 24 24 26 25 25 22 23 24 23 23 27 26 23 22 21 18 19 19 19 19 20 20 19 18 18 16 15 14 14 12 14 14 15 16 15 15 14 14 14 13 13
5 10 12 9 5 9 8 8 7 5 7 8 7 5 5 2 3 6 7 5 9 10 7 7 10 13 14 21 17 24 23 25 27 28 28 25 27 29 29 29 30 30 29 28 26 25 24 28 27 26 23 22 23 22 23 23 26 23 23 19 19 21 21 20 20 20 19 19 18 18 16 13 13 13 12 12 14 16 16 14 15 16 13 13 12 12
7 9 5 12 6 4 6 5 5 12 12 12 6 5 6 6 6 7 7 7 5 3 5 7 7 8 12 20 25 18 26 23 25 19 20 23 25 23 23 23 22 24 25 24 24 25 25 25 26 27 26 23 22 21 20 21 24 26 24 20 21 22 21 21 21 20 20 19 18 18 17 15 12 11 11 11 11 13 14 17 16 15 13 13 12 12
8 16 10 8 3 11 7 9 11 10 14 7 9 10 6 5 6 6 8 3 4 7 7 6 8 9 16 19 24 22 22 24 26 23 22 24 26 27 28 28 27 30 31 30 28 26 27 26 27 27 26 25 20 20 20 20 20 22 21 21 21 21 21 20 20 19 18 19 18 16 16 16 14 13 12 10 11 12 13 13 12 13 12 12 13 11
12 9 8 5 6 8 10 6 5 8 7 7 7 8 5 7 6 6 2 3 5 5 5 6 8 11 14 18 21 24 20 17 25 25 24 24 26 26 26 27 27 25 25 26 27 26 26 28 27 26 24 25 22 20 21 21 21 23 23 21 21 21 21 20 20 21 19 19 17 17 16 16 13 15 13 11 13 13 12 10 11 13 13 13 13 14
10 9 4 3 7 7 8 6 8 4 6 8 7 5 3 6 4 5 7 7 5 8 8 6 7 9 13 19 19 24 23 18 21 24 24 22 22 23 25 27 27 27 27 28 27 27 29 26 27 27 26 24 21 22 22 21 22 24 24 23 22 23 22 22 18 19 17 17 17 17 15 15 14 13 13 13 13 10 8 12 14 15 8 3 5 15
7 4 5 10 9 5 9 8 5 11 7 8 5 4 5 5 6 5 7 7 5 6 7 6 8 5 10 18 21 24 26 21 18 22 24 24 24 21 22 24 25 26 25 25 24 23 24 24 26 26 25 23 22 22 22 22 22 23 23 23 22 23 24 22 22 19 19 18 18 17 15 13 14 13 15 15 16 16 15 12 11 7 15 9 7 10
4 4 5 9 13 11 13 11 8 10 5 10 7 4 5 4 5 5 3 3 5 5 6 10 10 12 13 13 19 22 21 23 19 19 20 19 19 20 23 25 26 26 27 25 25 25 25 24 25 25 24 24 22 23 23 23 23 23 22 22 23 23 23 23 22 20 18 18 18 17 16 15 15 14 14 14 15 16 16 12 15 14 13 10 10 13
Wind_Speed
4 8 11 15 11 10 9 9 5 7 4 4 5 4 8 5 2 3 6 6 5 4 8 7 7 9 9 11 9 9 7 8 11 11 11 12 12 11 10 10 9 10 13 10 10 10 10 9 8 7 5 5 4 5 8 9 9 12 13 13 12 10 10 9 8 8 8 6 5 4 5 5 3 4 3 3 2 3 4 3 4 3 2 2 3 5
7 8 13 7 7 9 9 6 6 6 8 7 4 5 6 7 8 3 4 6 6 5 4 5 8 8 10 7 7 9 12 12 14 12 12 12 10 10 11 10 9 9 8 11 10 9 8 7 9 8 7 7 10 7 8 10 10 10 12 13 11 9 8 8 8 7 6 5 6 6 5 5 4 4 5 4 3 4 4 4 4 4 3 4 5 5
12 15 8 6 4 4 7 8 7 8 7 9 7 4 4 6 2 3 4 3 4 6 6 6 9 8 9 6 5 12 14 13 16 21 20 17 13 10 9 9 10 12 13 10 10 9 8 8 9 9 7 5 5 8 9 8 10 10 10 10 10 8 9 7 7 7 6 4 4 5 5 6 5 2 2 4 4 4 5 5 6 6 6 6 7 7
9 10 7 6 5 5 7 9 9 9 7 7 7 5 6 3 7 7 8 5 3 4 4 7 8 2 3 4 2 1 2 1 1 0 7 13 18 16 14 13 13 14 13 14 12 13 11 8 9 9 8 7 5 5 6 8 10 8 8 9 9 8 7 7 6 6 6 6 6 7 8 4 4 5 5 4 4 5 6 7 6 7 7 8 8 7
6 4 8 7 8 7 8 10 11 10 10 8 7 4 4 3 5 5 5 7 3 4 3 11 8 3 2 4 2 3 5 4 2 6 4 2 2 5 8 8 12 17 15 14 12 12 13 11 8 8 8 6 6 6 8 8 7 6 8 8 8 7 7 6 7 7 7 9 8 7 7 6 7 6 5 6 6 5 5 6 7 7 7 8 8 7
9 5 12 9 10 9 8 11 15 11 7 8 7 6 5 4 4 5 3 3 1 4 3 12 3 3 1 1 3 2 2 2 1 7 6 5 8 10 12 14 12 11 12 16 14 14 12 12 11 9 9 9 7 6 7 6 6 7 7 8 7 6 6 7 7 8 7 8 9 8 9 8 7 7 6 7 7 6 6 7 5 7 7 7 8 8
5 5 14 14 11 10 11 10 11 11 9 7 6 8 7 6 6 6 2 2 4 6 7 7 11 2 1 4 6 6 7 6 5 6 7 8 11 11 12 13 14 15 13 10 11 13 14 13 13 12 11 9 8 6 5 5 7 8 8 7 7 6 6 6 7 7 7 7 7 8 8 8 8 8 5 5 5 7 6 6 8 7 7 7 8 7
8 12 12 13 13 12 11 12 11 15 10 9 4 10 9 10 11 8 1 2 4 4 3 13 8 9 4 9 7 5 5 7 7 8 10 11 12 13 12 14 13 13 13 12 13 12 12 13 12 13 11 9 8 8 6 7 7 9 8 8 8 5 6 5 6 6 5 8 6 6 6 6 7 7 9 8 6 6 7 8 7 7 6 6 6 7
10 10 13 16 15 12 13 8 4 11 10 2 4 5 8 10 11 4 2 3 5 2 4 6 6 5 4 5 4 5 9 9 11 11 12 13 13 14 14 14 13 13 13 13 11 12 12 11 11 10 10 9 9 8 8 7 8 7 8 8 7 6 5 5 5 7 5 5 7 7 7 7 5 8 8 8 7 7 7 9 6 6 5 6 7 7
7 10 14 14 12 13 6 6 6 10 10 9 6 3 3 2 3 4 6 5 6 1 5 7 7 6 3 3 7 4 8 12 13 14 14 15 16 15 14 14 13 12 12 11 12 12 11 12 11 10 10 9 8 7 7 7 7 7 7 8 8 7 5 6 6 6 6 6 6 8 8 10 8 7 7 7 8 7 7 8 6 5 6 6 7 7
7 6 11 10 14 8 5 5 7 6 7 2 8 6 3 1 3 1 4 4 2 5 8 10 9 8 4 9 13 12 13 19 13 9 9 12 12 13 13 16 13 13 13 12 12 11 11 11 11 11 11 9 8 7 8 8 8 7 8 9 8 6 6 6 5 6 7 6 6 7 9 11 11 9 9 9 8 7 7 8 6 6 6 6 6 6
7 8 9 7 9 7 5 5 8 7 6 8 6 8 1 6 1 1 2 2 5 6 8 8 9 9 8 8 9 11 12 15 18 20 19 18 20 17 14 14 12 12 13 13 12 11 12 12 11 11 11 10 10 9 8 7 7 7 8 9 8 7 6 6 6 6 6 6 5 6 8 9 9 10 8 10 9 8 9 8 8 6 6 5 6 6
8 12 5 8 10 16 11 8 8 10 8 10 8 4 8 2 3 4 3 6 6 6 6 7 13 2 9 10 19 22 16 8 16 19 21 22 19 17 15 16 13 12 13 13 12 12 12 12 13 12 11 10 10 10 9 8 7 8 8 9 10 8 6 6 5 6 6 6 5 6 7 7 7 7 8 8 8 7 8 7 8 7 7 5 7 6
5 4 8 9 10 12 13 12 9 10 13 11 12 8 8 6 6 5 2 1 1 5 7 3 11 8 3 3 16 23 20 19 21 16 18 22 22 19 16 15 14 12 13 13 12 12 11 11 11 12 12 10 9 10 9 9 9 8 8 9 10 8 7 7 7 7 7 6 6 6 7 7 7 7 7 7 8 7 7 7 7 7 6 7 7 6
7 7 11 12 9 13 14 13 11 6 10 10 3 8 7 4 3 4 3 8 8 7 7 1 6 4 6 5 13 17 23 17 8 6 5 7 11 13 13 14 14 13 12 12 12 12 12 12 12 11 12 10 9 11 10 9 9 8 8 9 11 10 9 9 8 7 8 7 7 6 6 7 6 7 7 7 7 8 8 7 8 6 7 7 6 6
9 3 2 11 3 15 14 10 7 6 5 7 4 7 6 10 6 3 7 7 4 3 2 2 4 5 7 1 2 10 7 8 12 12 12 11 10 11 13 15 14 13 12 12 12 12 12 12 11 11 11 10 10 12 10 11 10 9 9 10 12 11 9 10 9 8 8 7 7 7 8 7 7 7 7 7 7 7 8 8 8 8 7 6 6 5
6 5 6 11 6 18 15 11 8 9 9 7 7 10 9 6 6 2 1 0 4 3 6 1 1 0 1 8 7 13 12 12 13 13 13 13 12 12 12 12 13 13 12 12 11 11 13 11 10 10 11 10 11 11 11 11 10 11 11 11 12 11 8 9 9 8 7 8 8 7 7 7 8 8 8 8 9 9 8 8 7 8 6 5 5 6
9 5 6 13 10 15 16 12 7 11 7 6 9 6 2 4 5 5 4 1 2 4 4 1 4 0 2 2 3 12 11 11 15 15 14 12 12 14 11 11 13 13 13 12 11 11 12 11 12 10 10 11 11 11 11 12 11 10 9 11 12 11 10 7 8 7 7 8 8 7 7 7 7 8 8 8 8 8 9 8 7 7 6 5 5 6
4 4 5 11 11 12 13 11 4 5 5 7 7 6 9 8 7 2 3 2 4 4 2 1 1 1 5 6 4 11 15 12 13 13 14 14 14 14 12 12 12 13 13 11 12 12 10 11 11 11 12 11 11 11 11 11 11 10 9 8 11 11 8 8 7 7 6 6 6 6 7 8 7 6 6 6 7 8 10 9 7 7 6 7 7 7
1 3 1 3 10 6 5 8 10 8 0 2 4 10 5 6 4 3 6 4 8 3 2 5 3 3 4 11 15 15 16 17 16 14 16 18 17 14 13 13 14 15 13 11 12 12 11 12 13 13 14 13 13 12 12 12 10 12 10 10 10 9 8 8 8 7 8 6 7 7 6 6 6 6 7 7 9 9 9 8 8 8 8 8 8 8
4 2 5 2 6 10 7 7 9 8 8 6 4 4 4 1 2 4 1 4 6 4 4 2 2 2 5 10 15 19 18 19 21 20 17 16 16 14 14 14 14 15 13 12 12 12 13 13 12 13 12 11 11 10 10 11 12 11 10 9 9 11 9 8 7 8 7 7 7 8 8 7 7 8 8 9 9 10 9 8 8 8 7 8 8 8
2 1 8 2 6 12 1 2 7 8 8 6 6 4 5 7 3 3 5 1 3 5 3 4 5 6 7 7 17 21 22 21 22 24 20 19 19 18 16 16 17 16 14 14 14 13 13 13 12 13 12 11 12 11 12 11 11 11 10 9 9 8 7 9 8 8 7 6 7 8 8 8 7 8 8 9 8 9 9 9 8 8 10 10 8 9
6 1 5 7 5 8 4 4 5 8 5 4 7 3 6 5 6 5 3 4 2 0 4 4 4 3 3 6 14 20 18 22 22 19 17 18 19 19 18 18 18 18 17 15 15 15 14 14 12 14 15 14 14 12 12 11 11 11 10 9 7 8 7 7 7 6 7 8 8 8 8 8 8 9 9 9 8 9 9 9 9 9 10 9 8 8
8 2 4 2 1 0 0 2 1 4 3 1 0 2 4 3 6 6 3 4 5 1 1 1 2 3 3 2 7 9 17 18 16 18 17 14 12 15 17 16 16 13 14 14 13 14 14 14 12 13 14 13 13 12 12 11 11 10 9 8 8 8 8 7 6 7 8 8 9 8 9 9 8 9 9 9 8 9 9 9 9 9 10 9 8 9
1 2 7 4 3 1 4 6 5 2 3 2 1 2 3 4 4 3 6 0 2 3 6 7 6 2 3 2 8 7 4 4 6 6 13 17 12 14 14 13 12 13 13 13 13 14 14 14 14 14 13 13 13 12 11 12 11 10 9 7 7 7 7 7 7 8 8 8 9 8 9 8 8 9 9 8 8 9 9 9 9 9 10 9 9 8
1 2 5 6 8 8 10 11 10 7 6 1 2 1 5 6 5 3 3 1 2 2 4 4 2 6 4 3 14 12 12 12 11 12 12 2 11 14 13 14 15 15 14 15 15 14 15 15 13 13 12 11 12 12 11 11 11 9 8 8 7 9 8 8 7 7 8 8 9 8 9 8 8 8 8 8 9 9 9 10 10 10 9 10 10 8
0 1 4 6 9 8 3 1 2 8 3 3 3 1 4 4 5 4 6 4 4 3 1 3 6 4 5 7 11 15 15 15 13 13 14 13 7 10 14 15 16 16 17 18 18 15 14 14 15 15 14 12 12 12 11 11 10 10 9 8 7 8 8 8 8 8 8 8 8 8 7 8 8 8 8 8 8 8 9 10 10 10 10 9 9 9
1 2 0 9 5 8 8 1 4 7 6 4 5 5 3 4 6 5 5 6 5 5 4 0 4 11 8 7 14 15 14 12 13 16 14 13 15 15 15 13 13 13 13 13 15 17 17 15 14 15 15 14 12 12 11 10 11 10 10 9 8 8 7 7 9 8 8 7 7 7 7 7 7 7 8 7 8 8 9 9 10 9 9 8 9 8
1 2 2 3 4 3 0 4 6 4 5 5 6 2 1 3 7 5 3 3 4 4 6 4 4 7 8 7 14 21 20 17 18 21 23 21 16 13 14 15 15 15 16 17 17 17 17 16 15 15 15 15 15 14 13 12 11 10 8 7 7 8 8 8 9 9 8 8 8 7 6 7 6 7 7 8 8 9 9 10 10 9 9 8 8 7
3 2 1 2 1 3 5 3 3 8 3 4 3 4 3 5 4 5 3 5 4 1 5 9 2 1 2 7 10 8 5 13 12 8 9 12 16 16 15 15 15 15 16 17 17 16 16 16 15 15 15 15 16 15 14 12 12 11 10 8 8 8 7 9 9 10 9 8 7 6 7 7 7 8 8 8 9 9 10 10 10 9 9 8 8 7
3 2 3 1 3 3 5 5 2 4 8 3 2 2 2 5 3 2 4 1 5 6 5 5 9 3 1 2 4 6 12 9 8 11 15 15 15 16 15 15 14 15 15 17 16 15 16 17 17 16 16 16 15 16 14 13 12 11 10 9 9 9 8 9 9 9 9 8 7 7 8 8 8 8 9 8 9 10 11 10 9 9 9 8 7 7
5 1 2 3 3 3 3 3 4 1 3 4 1 2 2 5 4 2 4 4 3 4 6 4 6 2 2 0 3 9 11 14 13 13 12 12 14 16 16 16 17 16 17 17 17 16 16 18 19 19 19 18 17 16 14 14 13 13 12 10 10 9 8 9 9 9 9 8 7 7 9 8 9 9 9 9 10 10 10 10 10 10 9 8 8 6
0 2 3 3 5 1 3 2 6 3 4 0 4 4 2 1 1 1 1 2 3 11 10 7 9 9 12 9 10 8 15 16 15 15 15 14 15 16 17 17 17 17 17 18 19 20 20 19 18 18 18 18 18 16 16 17 15 14 13 13 10 9 9 10 10 9 9 8 8 8 8 8 9 9 9 9 9 9 9 10 10 10 9 8 6 6
2 5 2 1 3 0 2 2 4 8 5 3 3 2 2 0 5 3 2 4 4 6 8 7 7 3 5 8 15 14 12 15 17 14 15 17 14 11 10 11 13 14 15 16 17 17 15 13 13 14 15 13 12 13 14 14 15 13 11 11 11 11 10 11 10 10 9 9 8 8 8 8 9 9 9 9 9 9 10 10 10 8 7 7 6 7
3 2 2 1 2 0 2 3 8 5 3 4 5 4 2 1 7 8 2 0 1 2 10 10 9 11 14 14 14 20 19 13 10 14 11 10 14 16 16 14 14 15 16 15 14 14 15 17 15 12 10 11 13 12 13 12 13 13 13 12 11 10 11 11 11 10 10 9 8 8 8 9 9 9 9 9 9 9 10 10 9 9 7 7 7 7
1 4 0 2 1 1 3 2 5 3 3 4 5 6 5 1 2 8 4 4 3 3 11 11 15 14 12 6 2 2 5 8 6 6 11 13 14 15 16 15 17 18 19 19 21 19 19 17 17 16 14 11 12 12 12 12 11 12 11 11 11 10 10 10 10 10 9 9 8 8 8 9 9 9 9 9 9 9 9 9 9 9 7 7 6 5
4 3 2 1 1 3 1 2 3 3 2 3 2 1 0 1 2 3 5 2 3 2 3 11 10 11 9 5 6 7 8 9 8 4 3 9 11 13 19 19 20 21 22 19 19 18 14 11 12 14 13 12 13 14 12 12 11 12 12 12 12 12 12 11 10 9 9 8 8 8 8 9 10 10 9 9 9 9 9 9 9 8 7 8 7 7
4 3 1 4 2 3 4 3 2 2 1 3 4 5 4 3 4 3 5 1 3 7 0 9 13 12 10 9 9 9 10 11 7 8 7 7 9 12 8 9 11 10 10 11 10 11 13 13 12 10 12 14 14 13 13 13 13 13 13 12 11 11 12 12 11 9 10 9 8 8 9 10 10 10 10 9 10 9 8 7 7 8 8 9 7 7
6 8 5 5 1 2 4 4 1 3 2 5 4 4 3 2 6 3 4 1 4 4 4 8 13 13 15 15 12 12 11 9 11 10 12 10 9 9 10 10 11 10 11 13 15 14 13 13 14 13 11 12 13 12 12 13 15 14 14 12 12 11 11 11 14 14 12 9 8 8 9 10 10 10 10 10 9 9 9 9 9 7 7 7 7 7
5 3 5 6 4 1 3 2 1 1 1 1 3 3 3 2 3 5 1 3 5 7 3 6 9 13 11 17 18 15 15 10 9 12 14 16 14 12 13 14 14 13 12 11 11 15 15 12 12 12 14 14 13 12 14 14 14 13 13 12 11 12 12 12 12 11 12 10 7 8 9 9 10 9 10 10 9 8 8 7 8 8 8 7 7 7
2 2 4 0 1 2 6 1 1 3 3 4 3 2 3 3 7 5 5 3 3 5 4 7 9 11 14 13 13 11 11 8 12 12 15 12 10 8 7 9 11 13 13 13 12 12 13 15 16 16 15 13 14 14 14 14 14 13 12 12 12 12 12 11 10 11 11 12 11 9 9 9 9 10 9 9 9 9 7 7 8 7 8 7 7 6
2 2 3 2 2 0 1 3 2 3 4 2 3 1 2 2 1 2 4 3 2 4 4 3 10 7 10 16 14 10 5 2 6 14 17 17 16 12 11 11 11 10 11 12 14 13 12 12 13 13 13 13 15 15 15 15 14 13 13 12 13 11 10 10 10 10 11 10 13 11 10 9 8 9 9 8 9 9 8 6 7 8 8 7 7 7
3 2 1 1 2 1 3 3 1 2 1 3 5 3 5 3 3 3 1 1 2 1 1 4 6 9 10 11 9 1 4 4 10 16 18 16 16 16 17 17 17 17 16 15 14 14 15 12 13 14 13 13 14 13 13 15 15 13 12 13 11 10 10 10 9 10 11 11 12 11 10 9 10 9 7 8 9 9 9 8 8 8 8 8 7 7
2 2 1 1 3 2 1 1 1 2 5 4 0 1 2 3 5 5 4 1 1 1 0 1 0 6 11 13 11 2 6 8 5 8 10 9 9 10 13 15 15 15 14 14 15 14 15 14 13 12 12 13 14 13 13 15 15 13 13 13 11 10 10 10 10 10 10 10 11 11 10 9 9 8 7 8 8 9 10 9 8 8 8 8 7 7
2 1 5 2 1 1 1 2 2 2 4 3 2 2 1 1 0 3 3 2 1 1 2 1 1 2 9 13 7 8 7 10 15 16 17 15 15 15 15 15 17 18 18 17 16 15 14 15 15 13 13 12 14 13 14 14 16 15 14 11 11 12 12 12 11 11 11 11 11 11 9 8 8 8 7 7 9 9 9 9 9 8 7 7 7 7
2 1 0 4 1 1 1 1 2 1 1 5 2 1 1 1 1 3 3 2 1 1 1 4 3 4 5 8 10 5 10 11 13 10 11 14 15 13 12 11 11 12 13 14 14 15 14 14 15 16 15 12 13 13 12 12 15 17 13 12 12 12 12 12 12 11 11 11 10 11 10 9 7 7 7 7 7 8 8 10 9 8 8 7 7 7
3 3 3 2 0 5 0 3 1 1 1 1 2 4 1 1 1 1 3 2 0 0 2 0 3 2 5 12 14 12 10 12 14 13 13 13 14 16 17 17 16 17 18 18 18 17 15 17 16 17 17 16 12 12 11 12 11 12 12 13 12 12 12 12 12 11 11 11 10 10 10 10 8 7 7 6 6 7 8 8 7 8 8 7 7 7
2 2 2 3 3 2 1 3 3 2 3 2 2 3 2 4 4 4 1 1 0 1 2 0 1 5 3 6 10 13 11 10 13 12 13 14 15 15 15 16 17 15 14 14 16 17 16 17 17 17 16 15 13 12 12 12 12 13 13 13 13 12 13 12 12 12 11 12 10 9 9 9 11 10 7 7 7 8 7 6 6 8 8 8 7 7
2 2 1 1 1 1 2 2 3 1 3 4 3 1 1 2 2 3 4 4 4 5 4 3 2 2 5 6 4 10 12 9 10 14 15 11 11 12 13 14 15 16 15 16 16 16 17 16 17 18 17 15 12 12 12 13 12 14 15 14 13 14 14 12 12 11 11 10 9 9 8 8 8 7 7 6 5 3 3 6 6 6 2 2 4 7
1 1 0 3 3 0 3 3 2 3 1 3 2 2 3 2 2 3 4 4 4 4 3 4 4 3 3 7 9 8 12 10 8 8 12 13 13 13 11 12 12 13 12 12 12 13 14 15 16 17 16 13 12 12 12 13 13 13 14 13 13 13 14 13 12 11 11 10 9 9 8 7 7 7 7 7 7 6 5 8 7 1 6 4 2 6
0 0 2 3 6 3 7 5 2 3 2 5 4 2 3 3 2 3 2 2 3 1 2 6 5 5 4 3 2 8 9 10 9 6 7 6 8 9 12 14 14 12 12 12 12 13 14 15 15 16 15 13 12 13 13 13 13 13 13 13 12 13 13 13 11 10 10 10 9 10 9 8 7 7 7 7 7 7 7 5 6 10 7 4 9 9
Wind_Direction
129 195 206 208 207 209 208 198 177 226 263 193 198 182 205 196 240 226 210 209 163 152 204 193 160 164 181 180 175 142 117 118 138 149 152 158 162 166 164 161 157 157 159 156 151 150 148 149 157 156 154 156 154 164 151 142 140 136 138 137 138 142 144 143 142 140 143 137 121 100 110 113 116 116 106 90 86 87 92 82 73 73 59 46 47 61
179 213 226 208 207 213 205 176 194 228 235 245 225 203 219 189 215 212 210 219 182 149 240 176 146 178 187 187 161 137 139 159 158 156 160 166 174 169 161 154 147 144 131 141 140 143 142 145 144 149 156 168 159 168 155 149 146 142 141 138 138 142 145 147 148 144 143 148 152 142 135 123 123 124 119 114 103 98 78 69 65 67 75 65 64 65
201 217 202 200 210 201 203 188 195 218 224 239 223 231 214 226 170 269 242 235 215 159 232 160 149 188 191 172 163 163 168 178 172 167 173 167 170 163 163 149 144 146 149 148 140 141 145 145 144 154 167 178 171 158 154 148 143 143 137 136 139 143 143 147 143 136 135 124 120 118 124 131 111 62 103 115 109 95 88 73 73 75 73 74 64 59
210 222 195 185 206 200 203 191 196 223 237 225 224 200 219 194 164 222 247 231 217 161 196 187 148 140 65 48 122 253 19 102 150 100 156 167 164 167 169 160 155 156 154 156 155 155 157 151 145 154 165 175 159 158 149 152 149 142 136 137 137 135 134 138 136 123 117 112 96 92 110 103 103 133 108 88 80 81 83 75 74 67 71 69 65 58
212 119 175 186 208 209 200 194 195 207 226 235 217 190 202 239 213 165 218 233 208 217 106 89 66 55 65 100 133 347 43 77 64 108 119 84 77 129 135 152 167 160 158 155 156 155 155 150 150 150 160 165 165 167 165 162 152 136 134 132 129 129 131 131 128 124 121 108 99 99 91 96 93 78 89 99 86 87 93 84 65 64 65 67 66 61
231 196 168 201 211 212 201 198 204 196 216 240 236 189 198 223 246 247 256 220 123 220 201 134 41 165 299 266 206 226 82 89 145 148 157 143 143 154 163 161 168 165 163 159 158 157 153 150 146 151 161 168 167 171 171 153 127 127 127 120 116 116 122 130 131 131 126 128 130 129 129 131 130 129 130 128 129 115 93 89 94 74 70 73 69 61
193 187 175 197 207 214 213 214 206 189 209 209 241 169 205 223 223 231 198 93 197 196 239 176 169 176 221 239 224 197 170 167 159 167 159 158 162 168 166 166 166 163 155 153 151 155 155 157 156 156 165 167 161 163 151 132 126 132 125 121 126 132 135 134 133 127 124 121 135 139 140 140 140 134 123 115 113 110 101 93 78 76 67 64 68 60
191 190 184 194 208 212 210 213 208 194 190 223 140 163 198 216 232 230 145 141 234 243 239 193 189 148 178 241 217 201 155 154 161 174 169 170 172 169 170 171 170 164 161 157 157 159 160 160 160 157 159 158 159 155 150 136 137 138 132 132 135 130 130 129 129 119 124 134 136 128 125 128 134 130 128 125 113 106 108 94 89 81 70 66 69 68
190 186 188 192 204 211 216 206 177 190 201 208 192 169 192 207 229 235 173 194 232 243 252 191 84 97 200 188 145 158 159 178 194 190 186 177 176 172 172 175 171 163 163 160 156 159 157 155 153 151 151 151 153 154 149 150 143 134 131 128 127 123 122 122 120 118 118 123 134 133 130 120 119 124 127 122 117 113 107 98 91 86 85 76 66 62
209 199 191 194 197 214 203 191 192 180 201 230 218 193 214 178 213 186 205 204 253 203 246 223 171 116 157 159 169 203 186 194 198 193 187 184 178 176 173 174 169 162 160 159 157 154 156 157 153 145 137 146 151 141 137 140 135 132 127 128 129 122 125 129 120 114 115 124 131 134 137 130 129 125 120 119 118 112 107 101 97 93 85 80 71 62
200 201 182 193 204 199 186 207 192 187 210 213 229 241 259 277 251 248 190 188 175 217 238 210 193 132 158 200 190 168 197 197 190 179 180 179 177 180 181 174 169 163 159 162 163 157 153 151 143 140 148 147 137 137 137 140 140 130 127 131 131 130 123 120 121 120 121 126 140 140 141 137 136 136 134 126 118 118 109 105 100 95 91 82 82 77
212 200 188 201 184 189 175 205 207 194 194 194 222 214 234 316 20 287 274 120 207 247 251 206 190 167 150 220 219 223 214 190 171 182 180 178 183 182 177 172 166 158 160 160 159 152 149 144 144 149 151 147 140 137 136 136 136 132 132 134 128 127 124 122 122 121 122 130 137 137 139 137 139 141 138 132 132 128 119 116 111 107 93 82 78 71
224 215 184 181 191 181 188 198 205 205 205 201 205 184 156 248 132 258 192 224 209 192 247 188 157 263 221 184 189 206 212 186 195 182 178 178 177 177 173 168 165 159 158 160 158 156 156 157 155 154 149 144 144 143 140 138 137 135 135 136 131 131 132 123 119 118 120 125 132 135 131 129 132 131 129 125 120 125 123 122 114 105 97 94 78 69
257 253 197 190 184 195 181 190 181 201 207 198 197 177 163 178 185 211 236 192 289 267 253 193 177 200 204 272 196 194 206 192 193 196 178 170 173 172 166 163 164 164 162 161 159 162 162 161 158 151 150 150 143 141 141 139 140 141 141 139 129 127 124 117 111 114 111 110 114 116 120 124 127 122 115 115 119 119 115 114 107 105 105 93 90 87
167 212 226 180 199 177 194 199 191 191 191 203 178 148 174 132 157 191 192 183 195 202 232 233 126 227 136 222 189 208 202 192 164 129 145 161 159 155 152 156 160 162 161 158 161 166 165 161 155 152 152 150 145 143 142 143 142 143 139 134 125 122 123 119 116 110 108 106 104 103 107 114 117 115 112 113 116 118 114 108 104 101 96 96 100 98
211 249 228 200 168 172 194 190 174 147 164 202 181 105 134 207 129 157 199 151 198 212 272 161 183 189 148 6 306 201 134 106 126 132 139 146 148 150 155 162 163 162 160 159 160 162 160 156 151 146 146 146 145 144 144 145 143 138 133 132 126 124 124 119 115 112 113 110 109 108 108 109 109 109 109 108 108 109 109 109 107 103 98 103 103 89
167 228 194 190 189 175 192 176 194 159 190 192 152 202 205 160 127 103 13 343 107 73 231 231 26 97 315 20 30 121 136 132 128 140 146 152 155 158 161 160 160 162 161 160 162 158 155 153 147 144 143 145 146 146 149 145 139 136 133 130 122 115 112 115 119 120 117 117 112 108 108 111 112 116 118 120 120 116 110 108 107 106 106 103 89 85
151 244 224 176 194 186 183 187 185 186 148 144 196 220 162 154 121 131 181 328 86 149 244 7 176 249 75 145 317 103 119 138 139 152 153 149 152 163 167 162 160 161 161 157 153 150 151 149 144 141 143 147 146 141 139 136 134 132 130 130 122 119 119 117 117 116 120 119 114 113 109 106 111 116 118 119 118 115 106 99 97 97 95 86 87 87
117 218 210 185 181 192 179 175 204 241 184 171 187 195 160 212 245 312 97 183 126 177 255 320 232 205 147 143 128 132 136 153 152 147 149 159 166 168 163 159 155 155 154 153 149 147 149 148 145 146 144 142 135 133 133 129 127 122 119 120 118 119 118 119 114 111 107 111 116 117 117 118 115 114 111 108 107 105 103 102 97 89 92 92 88 84
343 145 202 206 178 167 144 166 199 201 319 98 129 180 176 107 148 146 205 175 122 207 117 279 97 221 201 166 163 152 155 154 157 161 172 172 168 165 164 158 156 158 158 153 152 152 152 147 147 148 144 142 138 137 134 127 122 121 120 115 110 108 111 110 108 114 115 115 113 112 109 104 105 101 104 108 109 105 104 101 93 95 91 91 87 85
298 129 162 258 164 147 199 183 198 173 172 160 161 199 154 181 201 132 121 140 173 170 172 163 300 276 251 176 158 157 158 164 166 175 175 170 167 167 167 160 157 157 157 156 155 153 149 145 147 143 136 133 127 127 128 127 125 122 119 119 123 124 120 113 119 117 119 115 114 118 116 109 101 103 107 106 106 107 102 92 91 91 96 86 83 86
256 248 167 232 149 182 188 169 159 168 160 150 153 195 168 153 164 153 249 350 111 96 198 140 233 263 273 185 166 164 167 172 178 172 172 170 168 168 166 163 158 160 160 155 154 151 146 144 147 137 131 131 129 132 131 128 124 123 123 128 127 118 118 124 126 125 119 114 118 117 113 108 111 113 110 107 104 100 93 95 96 98 88 87 86 87
188 187 113 171 193 171 170 141 164 161 141 152 142 225 169 133 107 97 141 263 36 163 132 156 154 277 260 200 176 169 171 175 177 172 167 169 168 166 165 165 165 161 157 156 153 151 149 148 149 140 138 139 137 136 132 129 126 127 129 130 129 124 127 130 129 122 118 118 118 117 115 116 118 117 111 105 100 96 99 100 100 95 93 92 89 84
140 157 120 54 81 312 11 9 53 163 140 108 357 108 104 166 165 161 162 195 137 259 56 15 185 251 291 214 182 187 178 172 166 167 162 162 161 162 160 162 159 152 150 151 147 147 147 145 145 139 138 139 138 138 136 131 128 129 131 132 130 127 131 130 128 121 119 120 119 119 116 117 119 113 110 104 102 104 105 104 99 98 95 96 94 90
179 265 119 91 55 7 357 352 340 329 118 141 152 239 166 138 136 183 111 138 74 252 163 125 209 281 286 351 114 89 67 105 142 147 154 154 160 156 156 155 149 146 147 150 146 143 143 144 147 144 142 144 141 136 135 134 133 132 131 132 130 129 132 129 124 121 122 121 119 116 115 116 114 113 110 108 108 110 108 104 103 100 101 98 93 92
105 207 105 137 159 165 186 197 204 210 191 210 73 338 202 130 151 126 185 37 104 283 122 140 216 256 302 122 130 130 113 95 77 64 34 26 151 152 153 153 149 152 156 153 145 144 149 150 147 142 143 143 140 137 136 134 132 131 132 133 132 134 132 128 122 123 122 119 116 117 115 116 114 114 115 116 116 115 112 109 106 102 98 99 99 95
305 65 93 148 162 183 191 213 210 131 99 136 236 341 235 150 133 123 118 104 185 212 153 231 179 126 116 125 125 143 142 135 128 126 128 135 167 177 163 161 161 162 160 157 151 148 144 148 151 146 144 143 140 139 137 135 133 135 137 135 132 132 129 126 125 125 120 118 117 117 118 119 119 121 122 121 121 116 111 109 107 105 104 103 103 103
53 102 330 127 143 167 188 203 147 109 141 166 166 242 283 161 127 105 134 200 186 99 312 280 196 137 190 161 145 147 151 147 144 143 148 164 174 173 170 161 154 152 150 147 144 149 152 150 146 146 144 142 140 137 134 136 140 144 144 140 133 130 126 126 125 123 120 119 117 117 120 116 114 115 116 116 114 110 108 106 105 104 104 102 101 99
115 127 273 120 169 83 142 184 121 106 136 165 167 187 144 140 120 127 205 186 126 162 201 217 204 162 174 193 173 158 160 163 164 170 177 173 164 163 160 157 157 155 153 153 153 152 151 150 150 147 145 144 142 142 143 145 144 140 136 133 131 132 133 131 126 126 125 123 122 124 119 112 109 110 112 111 109 107 106 106 105 103 103 101 101 99
83 32 322 109 80 9 18 5 154 131 135 129 145 189 167 134 166 140 153 176 140 199 203 151 130 232 174 177 177 169 152 159 159 138 124 143 165 166 162 161 158 156 156 154 153 154 151 148 148 149 147 148 149 150 155 150 146 144 142 139 136 137 140 132 131 131 131 127 128 126 119 115 115 116 115 112 110 112 111 109 108 105 101 100 99 100
101 288 306 23 63 357 329 2 11 159 143 190 232 193 115 135 134 174 110 78 63 56 57 122 129 119 337 78 116 109 105 92 112 149 163 162 161 164 164 162 157 155 155 153 150 150 152 153 153 152 152 155 159 162 156 148 145 142 141 143 144 144 143 131 131 131 130 129 129 127 123 120 122 120 115 114 112 114 115 115 111 106 103 102 101 99
69 279 42 56 73 334 343 10 292 169 152 152 217 272 134 110 104 202 121 207 122 143 97 82 104 144 221 80 136 132 130 137 156 162 163 169 170 167 166 163 159 157 156 155 152 152 157 161 163 162 161 162 164 160 152 149 148 148 150 150 149 146 136 131 133 133 131 129 129 130 129 127 124 119 119 117 117 117 117 116 111 110 109 107 101 97
79 101 44 48 74 289 275 333 227 95 60 251 269 274 224 184 169 63 32 114 177 146 124 138 203 189 166 156 143 169 167 169 165 167 169 173 173 173 170 165 161 158 157 156 159 165 168 168 167 166 166 167 166 159 157 150 150 155 156 155 151 137 135 136 136 134 132 131 132 134 131 128 125 124 121 120 120 119 119 117 115 116 113 109 108 99
40 79 109 107 111 255 329 334 100 86 147 236 232 206 179 186 168 141 164 203 174 141 185 175 169 100 123 161 162 162 166 179 178 179 172 165 162 162 159 157 155 156 157 164 166 164 160 160 167 172 171 161 151 150 152 152 146 147 147 145 144 142 142 139 138 136 136 135 137 137 134 130 128 125 125 124 122 121 121 120 119 117 113 110 102 98
61 62 68 28 90 284 357 29 79 144 220 244 280 282 239 129 120 131 147 250 117 90 96 101 129 161 182 179 179 178 181 169 154 152 160 170 162 159 158 156 156 156 163 166 164 159 167 172 170 159 151 149 148 147 145 148 153 148 146 148 144 142 141 140 139 139 139 140 141 139 136 133 129 128 129 126 124 120 119 120 119 117 118 115 114 110
57 73 107 34 106 21 41 31 105 211 236 304 304 303 287 85 111 109 96 16 333 188 141 151 168 175 165 160 88 25 129 139 131 149 159 161 164 160 155 163 167 167 170 176 172 174 173 174 168 160 152 143 143 149 151 150 147 143 142 141 139 138 139 139 140 141 138 139 144 143 141 136 134 133 131 128 125 121 121 122 125 124 122 112 107 103
126 86 67 26 63 128 160 116 171 295 14 358 34 21 86 112 19 142 163 25 319 313 215 164 168 156 145 111 116 110 111 113 128 152 193 168 169 173 170 172 173 179 179 178 171 166 164 152 151 157 149 145 148 148 151 147 142 136 137 141 148 149 145 142 140 141 139 137 145 146 143 139 138 137 135 132 128 127 126 124 121 119 121 118 122 120
87 84 215 94 343 109 105 43 19 33 125 277 248 278 282 217 143 163 101 332 315 346 268 156 157 166 143 130 134 135 122 117 140 195 204 196 180 178 179 167 170 169 163 155 147 146 151 158 155 148 146 145 150 151 146 145 139 138 142 147 147 144 145 142 139 135 138 153 156 150 146 145 143 142 140 136 136 134 129 122 120 125 129 129 132 126
42 86 105 101 135 33 40 94 137 130 242 211 256 252 263 226 140 133 66 346 281 297 324 174 160 161 154 149 149 143 139 155 195 197 193 183 184 175 155 162 165 162 159 158 154 152 156 157 153 145 139 142 146 148 142 140 140 143 149 150 151 150 150 152 151 152 148 154 149 148 146 146 143 142 140 137 139 138 136 135 134 133 125 127 126 132
32 1 38 24 43 79 136 79 59 191 74 331 261 278 250 154 89 61 134 277 273 311 302 162 169 162 170 159 155 162 157 181 203 213 188 184 180 168 160 159 157 155 156 154 156 154 150 145 140 147 150 151 150 148 144 144 147 149 149 150 149 152 154 161 158 147 139 137 144 145 144 143 142 142 142 141 139 138 137 133 128 132 130 130 130 134
3 344 53 98 147 60 79 338 335 320 283 261 272 259 193 118 72 93 189 236 261 286 311 173 173 174 159 161 167 164 214 185 206 177 153 154 146 153 150 149 149 149 150 152 151 147 149 154 157 157 158 152 149 151 150 150 148 150 151 152 156 161 161 154 144 145 145 143 139 143 146 144 145 144 145 145 143 140 135 136 136 136 132 135 132 130
13 61 335 56 53 124 155 110 210 236 240 256 327 204 280 51 79 198 233 206 224 295 322 165 162 171 170 169 187 197 207 47 86 128 146 163 168 151 139 137 135 140 145 146 146 150 152 154 155 154 152 153 155 155 155 153 153 152 154 159 166 162 147 141 142 142 143 150 142 146 146 146 145 144 145 145 138 137 139 140 138 139 140 138 141 143
211 104 241 187 218 58 49 65 27 125 301 15 327 3 30 99 228 210 201 298 231 259 324 36 153 172 172 198 204 92 108 86 140 154 157 158 150 154 153 151 152 155 156 153 158 159 152 153 156 155 152 154 154 155 156 154 152 155 157 164 160 148 145 140 143 143 145 146 142 143 147 147 147 146 147 148 147 144 146 150 147 148 146 147 148 146
207 82 252 241 174 153 99 115 164 214 252 301 54 165 260 180 187 172 135 60 289 187 92 315 51 174 189 194 187 125 120 121 107 126 132 136 139 142 153 155 155 153 154 158 155 155 155 150 151 151 154 157 157 157 157 156 157 159 162 161 148 145 140 140 144 144 144 144 142 142 147 149 148 146 147 149 144 143 148 155 156 154 157 157 153 153
272 159 177 142 250 123 199 203 239 249 238 283 99 125 194 300 188 149 139 152 97 7 171 119 275 227 196 198 162 148 142 162 159 159 153 160 157 159 161 163 161 160 159 161 162 157 156 154 151 150 154 161 159 158 160 162 159 159 158 153 148 150 146 146 148 147 145 145 144 145 148 145 146 147 148 148 145 146 153 156 157 158 169 159 159 157
346 314 296 77 105 64 112 185 224 304 352 353 353 72 89 18 109 122 114 82 329 264 187 160 226 247 213 170 141 182 168 165 151 159 150 151 154 154 149 149 155 154 155 152 154 160 155 151 151 154 157 161 162 159 161 162 159 159 156 149 151 148 146 146 147 146 147 146 145 148 149 146 149 148 146 146 150 151 156 158 161 163 168 165 168 167
287 354 43 96 226 73 243 310 95 174 1 1 0 331 340 346 342 112 108 142 226 83 105 237 171 187 177 160 165 169 170 165 158 157 156 151 154 159 162 162 162 164 165 167 162 156 155 156 158 161 160 159 164 161 160 155 155 145 142 151 151 148 147 147 146 145 146 148 148 150 151 152 154 152 148 147 149 151 158 158 164 163 168 173 173 172
327 346 68 55 61 103 206 244 262 269 284 305 80 48 1 336 355 12 21 283 178 133 120 131 104 86 97 164 165 156 159 160 152 153 161 163 161 161 162 163 162 164 170 162 160 161 157 161 161 161 161 161 163 161 156 152 148 149 150 151 153 150 148 149 150 150 153 152 152 154 157 155 156 153 152 158 154 151 152 159 160 168 173 181 174 162
248 11 69 345 101 300 323 276 315 14 346 342 345 355 268 285 16 353 353 8 12 38 11 47 39 148 139 138 139 145 144 166 168 161 156 154 154 160 165 164 165 164 160 163 168 166 164 163 162 162 163 163 162 156 152 150 150 154 155 156 155 153 151 152 151 149 149 151 150 155 156 155 158 156 146 133 109 90 118 154 165 160 182 260 191 167
43 23 119 59 56 144 173 209 133 129 261 296 308 273 307 306 71 13 353 15 13 32 17 70 56 41 103 139 142 150 146 144 150 157 158 159 161 155 150 153 157 159 163 163 160 162 160 163 162 163 164 161 156 153 151 153 155 158 159 156 156 154 152 151 150 149 153 155 156 155 152 151 147 141 137 134 131 117 71 31 45 341 175 167 210 210
124 232 107 149 158 221 239 232 175 135 220 231 225 283 279 277 74 42 360 334 335 15 190 116 97 89 89 55 66 137 138 144 143 137 134 143 150 153 152 152 154 157 159 161 163 166 165 165 164 165 163 160 156 155 155 156 158 161 162 159 158 156 152 151 152 155 156 158 161 161 155 147 142 142 135 137 133 125 116 90 42 34 30 123 149 150